Stations météo

réclame
Mon MeteoGroup
Murcia/Alcantarilla, Espagne (8429): Température de l'air & dewpoint: 14.06.2018 17:00:00 - 20.06.2018 17:00:00 (CEST)Murcia/Alcantarilla, Espagne (8429): Vitesse du vent: 14.06.2018 17:00:00 - 20.06.2018 17:00:00 (CEST)Murcia/Alcantarilla, Espagne (8429): Direction du vent: 14.06.2018 17:00:00 - 20.06.2018 17:00:00 (CEST)Murcia/Alcantarilla, Espagne (8429): reduced air pressure: 14.06.2018 17:00:00 - 20.06.2018 17:00:00 (CEST)Murcia/Alcantarilla, Espagne (8429): visibility: 14.06.2018 17:00:00 - 20.06.2018 17:00:00 (CEST)
Date & Time tt [°C] td [°C] ff [km/h] ff [knt] dd ppp [hPa] vv [km]
20.06.2018 17:00:00 31,2 11,1 15 8 E 1017,0 50
20.06.2018 16:00:00 - - - - - - -
20.06.2018 15:00:00 - - - - - - -
20.06.2018 14:00:00 30,2 11,7 13 7 E 1018,4 50
20.06.2018 13:00:00 - - - - - - -
20.06.2018 12:00:00 - - - - - - -
20.06.2018 11:00:00 26,0 13,5 8 4 N 1019,6 50
20.06.2018 10:00:00 - - - - - - -
20.06.2018 09:00:00 - - - - - - -
20.06.2018 08:00:00 20,3 14,2 0 0 N 1019,9 50
20.06.2018 07:00:00 - - - - - - -
20.06.2018 06:00:00 - - - - - - -
20.06.2018 05:00:00 - - - - - - -
20.06.2018 04:00:00 - - - - - - -
20.06.2018 03:00:00 - - - - - - -
20.06.2018 02:00:00 - - - - - - -
20.06.2018 01:00:00 - - - - - - -
20.06.2018 00:00:00 - - - - - - -
19.06.2018 23:00:00 - - - - - - -
19.06.2018 22:00:00 - - - - - - -
19.06.2018 21:00:00 - - - - - - -
19.06.2018 20:00:00 27,1 13,8 18 10 SE 1019,6 50
19.06.2018 19:00:00 - - - - - - -
19.06.2018 18:00:00 - - - - - - -
19.06.2018 17:00:00 30,1 13,0 13 7 SE 1019,8 50
19.06.2018 16:00:00 - - - - - - -
19.06.2018 15:00:00 - - - - - - -
19.06.2018 14:00:00 29,8 13,1 9 5 SE 1020,7 50
19.06.2018 13:00:00 - - - - - - -
19.06.2018 12:00:00 - - - - - - -
19.06.2018 11:00:00 27,2 12,8 9 5 N 1021,8 40
19.06.2018 10:00:00 - - - - - - -
19.06.2018 09:00:00 - - - - - - -
19.06.2018 08:00:00 20,2 15,2 0 0 N 1021,9 30
19.06.2018 07:00:00 - - - - - - -
19.06.2018 06:00:00 - - - - - - -
19.06.2018 05:00:00 - - - - - - -
19.06.2018 04:00:00 - - - - - - -
19.06.2018 03:00:00 - - - - - - -
19.06.2018 02:00:00 - - - - - - -
19.06.2018 01:00:00 - - - - - - -
19.06.2018 00:00:00 - - - - - - -
18.06.2018 23:00:00 - - - - - - -
18.06.2018 22:00:00 - - - - - - -
18.06.2018 21:00:00 - - - - - - -
18.06.2018 20:00:00 28,0 12,4 21 11 ESE 1018,4 60
18.06.2018 19:00:00 - - - - - - -
18.06.2018 18:00:00 - - - - - - -
18.06.2018 17:00:00 31,0 12,4 13 7 ESE 1018,5 60
18.06.2018 16:00:00 - - - - - - -
18.06.2018 15:00:00 - - - - - - -
18.06.2018 14:00:00 31,2 15,2 15 8 ESE 1019,7 50
18.06.2018 13:00:00 - - - - - - -
18.06.2018 12:00:00 - - - - - - -
18.06.2018 11:00:00 26,8 10,5 5 3 NNE 1020,4 50
18.06.2018 10:00:00 - - - - - - -
18.06.2018 09:00:00 - - - - - - -
18.06.2018 08:00:00 20,0 15,2 2 1 N 1020,5 40
18.06.2018 07:00:00 - - - - - - -
18.06.2018 06:00:00 - - - - - - -
18.06.2018 05:00:00 - - - - - - -
18.06.2018 04:00:00 - - - - - - -
18.06.2018 03:00:00 - - - - - - -
18.06.2018 02:00:00 - - - - - - -
18.06.2018 01:00:00 - - - - - - -
18.06.2018 00:00:00 - - - - - - -
17.06.2018 23:00:00 - - - - - - -
17.06.2018 22:00:00 - - - - - - -
17.06.2018 21:00:00 - - - - - - -
17.06.2018 20:00:00 28,9 11,5 18 10 SE 1018,5 50
17.06.2018 19:00:00 - - - - - - -
17.06.2018 18:00:00 - - - - - - -
17.06.2018 17:00:00 31,1 10,4 13 7 SE 1018,2 50
17.06.2018 16:00:00 - - - - - - -
17.06.2018 15:00:00 - - - - - - -
17.06.2018 14:00:00 30,4 10,9 15 8 ENE 1018,8 40
17.06.2018 13:00:00 - - - - - - -
17.06.2018 12:00:00 - - - - - - -
17.06.2018 11:00:00 27,4 9,3 9 5 NE 1019,1 50
17.06.2018 10:00:00 - - - - - - -
17.06.2018 09:00:00 - - - - - - -
17.06.2018 08:00:00 20,1 15,9 2 1 N 1018,6 50
17.06.2018 07:00:00 - - - - - - -
17.06.2018 06:00:00 - - - - - - -
17.06.2018 05:00:00 - - - - - - -
17.06.2018 04:00:00 - - - - - - -
17.06.2018 03:00:00 - - - - - - -
17.06.2018 02:00:00 - - - - - - -
17.06.2018 01:00:00 - - - - - - -
17.06.2018 00:00:00 - - - - - - -
16.06.2018 23:00:00 - - - - - - -
16.06.2018 22:00:00 - - - - - - -
16.06.2018 21:00:00 - - - - - - -
16.06.2018 20:00:00 28,2 11,3 18 10 ESE 1014,0 60
16.06.2018 19:00:00 - - - - - - -
16.06.2018 18:00:00 - - - - - - -
16.06.2018 17:00:00 31,4 9,6 21 11 SE 1013,6 50
16.06.2018 16:00:00 - - - - - - -
16.06.2018 15:00:00 - - - - - - -
16.06.2018 14:00:00 31,2 9,4 9 5 ESE 1014,9 50
16.06.2018 13:00:00 - - - - - - -
16.06.2018 12:00:00 - - - - - - -
16.06.2018 11:00:00 25,8 14,6 4 2 E 1015,8 30
16.06.2018 10:00:00 - - - - - - -
16.06.2018 09:00:00 - - - - - - -
16.06.2018 08:00:00 19,0 15,7 0 0 N 1015,4 15
16.06.2018 07:00:00 - - - - - - -
16.06.2018 06:00:00 - - - - - - -
16.06.2018 05:00:00 - - - - - - -
16.06.2018 04:00:00 - - - - - - -
16.06.2018 03:00:00 - - - - - - -
16.06.2018 02:00:00 - - - - - - -
16.06.2018 01:00:00 - - - - - - -
16.06.2018 00:00:00 - - - - - - -
15.06.2018 23:00:00 - - - - - - -
15.06.2018 22:00:00 - - - - - - -
15.06.2018 21:00:00 - - - - - - -
15.06.2018 20:00:00 29,1 10,3 18 10 SSE 1012,7 50
15.06.2018 19:00:00 - - - - - - -
15.06.2018 18:00:00 - - - - - - -
15.06.2018 17:00:00 32,1 10,7 24 13 SSE 1012,7 50
15.06.2018 16:00:00 - - - - - - -
15.06.2018 15:00:00 - - - - - - -
15.06.2018 14:00:00 30,8 12,7 4 2 NNW 1014,8 40
15.06.2018 13:00:00 - - - - - - -
15.06.2018 12:00:00 - - - - - - -
15.06.2018 11:00:00 24,6 15,0 4 2 N 1015,3 30
15.06.2018 10:00:00 - - - - - - -
15.06.2018 09:00:00 - - - - - - -
15.06.2018 08:00:00 18,0 15,1 4 2 N 1015,6 20
15.06.2018 07:00:00 - - - - - - -
15.06.2018 06:00:00 - - - - - - -
15.06.2018 05:00:00 - - - - - - -
15.06.2018 04:00:00 - - - - - - -
15.06.2018 03:00:00 - - - - - - -
15.06.2018 02:00:00 - - - - - - -
15.06.2018 01:00:00 - - - - - - -
15.06.2018 00:00:00 - - - - - - -
14.06.2018 23:00:00 - - - - - - -
14.06.2018 22:00:00 - - - - - - -
14.06.2018 21:00:00 - - - - - - -
14.06.2018 20:00:00 26,4 15,8 18 10 E 1013,1 60
14.06.2018 19:00:00 - - - - - - -
14.06.2018 18:00:00 - - - - - - -
14.06.2018 17:00:00 29,8 13,5 24 13 SSE 1012,6 60

tt = Température de l'air
td = dewpoint
ff = Vitesse du vent
dd = Direction du vent
ppp = reduced air pressure
vv = visibility

stations d'obs. à proximité